Location: Newark
(41.9000°N, 12.4833°E)
Time: 18:43:15
(UTC+00:00)

Tiangong 2 - Visible Passes

Search period start: 22 March 2019 00:00
Search period end: 01 April 2019 00:00
Orbit: 379 x 390 km, 42.8° (Epoch: 22 March)

Date Brightness Start Highest point End Pass type
(mag) Time Alt. Az. Time Alt. Az. Time Alt. Az.
22 Mar 2.8 03:10:43 29° ESE 03:10:43 29° ESE 03:12:27 10° ESE visible
23 Mar 2.2 03:46:34 28° SSW 03:46:34 28° SSW 03:49:10 10° SE visible
24 Mar 3.4 04:22:56 10° SW 04:23:13 10° SW 04:23:29 10° SSW visible
29 Mar 3.5 19:10:49 10° SSW 19:11:25 14° SSW 19:11:25 14° SSW visible
30 Mar 3.1 18:12:18 10° S 18:14:03 14° SE 18:15:24 11° ESE visible
30 Mar 3.9 19:47:17 10° WSW 19:47:39 13° WSW 19:47:39 13° WSW visible
31 Mar 1.7 18:47:57 10° SW 18:50:54 37° SSE 18:51:27 34° SE visible
